Powrót do katalogu

LEMUR 2 THERMORAPTOR

AktywnyPogodaSSO
NORAD 63354·PAYLOAD·🇺🇸 United States

Wystrzelony Mar 26, 2025 z Rocket Lab Launch Complex 1

Loading…

Następne Przeloty (najbliższe 24 godziny)

TLE

ŚwieżeSource: Space-Track

Epoka: Sep 14, 2026, 09:50 UTC

1 63354U 25061D   26257.40979055  .00003483  00000-0  19141-3 0  9993
2 63354  97.5804 233.0571 0017401 311.9600  48.0148 15.14648367 81111

Śledź LEMUR 2 THERMORAPTOR w czasie rzeczywistym z AllMySat

Download on the App Store